﻿測定場所 (Monitoring sites),日付 (Measurement date),時間 (Measurement time),線量率 最大値 (max) μGy/h,線量率 最小値 (min) μGy/h,線量率 平均値 (average) μGy/h,
新宿 (Shinjuku),2011-06-12,23:00～23:59,0.0635,0.0579,0.0601,
新宿 (Shinjuku),2011-06-12,22:00～22:59,0.0631,0.0572,0.0595,
新宿 (Shinjuku),2011-06-12,21:00～21:59,0.0617,0.0572,0.0596,
新宿 (Shinjuku),2011-06-12,20:00～20:59,0.0633,0.0569,0.0593,
新宿 (Shinjuku),2011-06-12,19:00～19:59,0.0615,0.0567,0.0596,
新宿 (Shinjuku),2011-06-12,18:00～18:59,0.0622,0.0571,0.0595,
新宿 (Shinjuku),2011-06-12,17:00～17:59,0.0614,0.0569,0.0592,
新宿 (Shinjuku),2011-06-12,16:00～16:59,0.0614,0.0564,0.0591,
新宿 (Shinjuku),2011-06-12,15:00～15:59,0.0615,0.0554,0.0590,
新宿 (Shinjuku),2011-06-12,14:00～14:59,0.0633,0.0570,0.0592,
新宿 (Shinjuku),2011-06-12,13:00～13:59,0.0627,0.0562,0.0593,
新宿 (Shinjuku),2011-06-12,12:00～12:59,0.0621,0.0565,0.0592,
新宿 (Shinjuku),2011-06-12,11:00～11:59,0.0621,0.0571,0.0596,
新宿 (Shinjuku),2011-06-12,10:00～10:59,0.0625,0.0563,0.0594,
新宿 (Shinjuku),2011-06-12,09:00～09:59,0.0628,0.0579,0.0598,
新宿 (Shinjuku),2011-06-12,08:00～08:59,0.0620,0.0570,0.0594,
新宿 (Shinjuku),2011-06-12,07:00～07:59,0.0625,0.0575,0.0599,
新宿 (Shinjuku),2011-06-12,06:00～06:59,0.0624,0.0570,0.0596,
新宿 (Shinjuku),2011-06-12,05:00～05:59,0.0617,0.0569,0.0593,
新宿 (Shinjuku),2011-06-12,04:00～04:59,0.0628,0.0577,0.0595,
新宿 (Shinjuku),2011-06-12,03:00～03:59,0.0623,0.0569,0.0594,
新宿 (Shinjuku),2011-06-12,02:00～02:59,0.0623,0.0565,0.0600,
新宿 (Shinjuku),2011-06-12,01:00～01:59,0.0631,0.0572,0.0599,
新宿 (Shinjuku),2011-06-12,00:00～00:59,0.0620,0.0564,0.0591,
新宿 (Shinjuku),2011-06-11,23:00～23:59,0.0629,0.0560,0.0590,
新宿 (Shinjuku),2011-06-11,22:00～22:59,0.0617,0.0558,0.0590,
新宿 (Shinjuku),2011-06-11,21:00～21:59,0.0614,0.0560,0.0589,
新宿 (Shinjuku),2011-06-11,20:00～20:59,0.0615,0.0570,0.0589,
新宿 (Shinjuku),2011-06-11,19:00～19:59,0.0616,0.0560,0.0590,
新宿 (Shinjuku),2011-06-11,18:00～18:59,0.0616,0.0572,0.0595,
新宿 (Shinjuku),2011-06-11,17:00～17:59,0.0616,0.0563,0.0590,
新宿 (Shinjuku),2011-06-11,16:00～16:59,0.0629,0.0568,0.0599,
新宿 (Shinjuku),2011-06-11,15:00～15:59,0.0620,0.0565,0.0598,
新宿 (Shinjuku),2011-06-11,14:00～14:59,0.0624,0.0574,0.0597,
新宿 (Shinjuku),2011-06-11,13:00～13:59,0.0628,0.0580,0.0603,
新宿 (Shinjuku),2011-06-11,12:00～12:59,0.0633,0.0582,0.0608,
新宿 (Shinjuku),2011-06-11,11:00～11:59,0.0645,0.0594,0.0620,
新宿 (Shinjuku),2011-06-11,10:00～10:59,0.0652,0.0596,0.0622,
新宿 (Shinjuku),2011-06-11,09:00～09:59,0.0650,0.0596,0.0619,
新宿 (Shinjuku),2011-06-11,08:00～08:59,0.0646,0.0596,0.0622,
新宿 (Shinjuku),2011-06-11,07:00～07:59,0.0696,0.0600,0.0654,
新宿 (Shinjuku),2011-06-11,06:00～06:59,0.0704,0.0640,0.0665,
新宿 (Shinjuku),2011-06-11,05:00～05:59,0.0731,0.0659,0.0692,
新宿 (Shinjuku),2011-06-11,04:00～04:59,0.0718,0.0643,0.0678,
新宿 (Shinjuku),2011-06-11,03:00～03:59,0.0680,0.0609,0.0646,
新宿 (Shinjuku),2011-06-11,02:00～02:59,0.0638,0.0572,0.0606,
新宿 (Shinjuku),2011-06-11,01:00～01:59,0.0632,0.0576,0.0602,
新宿 (Shinjuku),2011-06-11,00:00～00:59,0.0646,0.0577,0.0606,
新宿 (Shinjuku),2011-06-10,23:00～23:59,0.0644,0.0596,0.0619,
新宿 (Shinjuku),2011-06-10,22:00～22:59,0.0642,0.0572,0.0610,
新宿 (Shinjuku),2011-06-10,21:00～21:59,0.0621,0.0572,0.0598,
新宿 (Shinjuku),2011-06-10,20:00～20:59,0.0626,0.0563,0.0596,
新宿 (Shinjuku),2011-06-10,19:00～19:59,0.0619,0.0566,0.0593,
新宿 (Shinjuku),2011-06-10,18:00～18:59,0.0609,0.0565,0.0590,
新宿 (Shinjuku),2011-06-10,17:00～17:59,0.0628,0.0560,0.0591,
新宿 (Shinjuku),2011-06-10,16:00～16:59,0.0617,0.0514,0.0584,
新宿 (Shinjuku),2011-06-10,15:00～15:59,0.0623,0.0557,0.0589,
新宿 (Shinjuku),2011-06-10,14:00～14:59,0.0619,0.0567,0.0593,
新宿 (Shinjuku),2011-06-10,13:00～13:59,0.0624,0.0562,0.0595,
新宿 (Shinjuku),2011-06-10,12:00～12:59,0.0617,0.0573,0.0595,
新宿 (Shinjuku),2011-06-10,11:00～11:59,0.0614,0.0535,0.0588,
新宿 (Shinjuku),2011-06-10,10:00～10:59,0.0623,0.0569,0.0594,
新宿 (Shinjuku),2011-06-10,09:00～09:59,0.0628,0.0583,0.0602,
新宿 (Shinjuku),2011-06-10,08:00～08:59,0.0619,0.0572,0.0598,
新宿 (Shinjuku),2011-06-10,07:00～07:59,0.0618,0.0570,0.0595,
新宿 (Shinjuku),2011-06-10,06:00～06:59,0.0621,0.0568,0.0594,
新宿 (Shinjuku),2011-06-10,05:00～05:59,0.0636,0.0566,0.0595,
新宿 (Shinjuku),2011-06-10,04:00～04:59,0.0617,0.0565,0.0590,
新宿 (Shinjuku),2011-06-10,03:00～03:59,0.0610,0.0562,0.0586,
新宿 (Shinjuku),2011-06-10,02:00～02:59,0.0612,0.0560,0.0592,
新宿 (Shinjuku),2011-06-10,01:00～01:59,0.0629,0.0564,0.0590,
新宿 (Shinjuku),2011-06-10,00:00～00:59,0.0614,0.0566,0.0594,
新宿 (Shinjuku),2011-06-09,23:00～23:59,0.0624,0.0570,0.0591,
新宿 (Shinjuku),2011-06-09,22:00～22:59,0.0632,0.0572,0.0600,
新宿 (Shinjuku),2011-06-09,21:00～21:59,0.0628,0.0562,0.0595,
新宿 (Shinjuku),2011-06-09,20:00～20:59,0.0622,0.0563,0.0589,
新宿 (Shinjuku),2011-06-09,19:00～19:59,0.0623,0.0573,0.0592,
新宿 (Shinjuku),2011-06-09,18:00～18:59,0.0614,0.0556,0.0586,
新宿 (Shinjuku),2011-06-09,17:00～17:59,0.0617,0.0565,0.0589,
新宿 (Shinjuku),2011-06-09,16:00～16:59,0.0613,0.0566,0.0594,
新宿 (Shinjuku),2011-06-09,15:00～15:59,0.0615,0.0566,0.0595,
新宿 (Shinjuku),2011-06-09,14:00～14:59,0.0612,0.0564,0.0590,
新宿 (Shinjuku),2011-06-09,13:00～13:59,0.0614,0.0569,0.0593,
新宿 (Shinjuku),2011-06-09,12:00～12:59,0.0614,0.0569,0.0595,
新宿 (Shinjuku),2011-06-09,11:00～11:59,0.0622,0.0556,0.0591,
新宿 (Shinjuku),2011-06-09,10:00～10:59,0.0625,0.0568,0.0594,
新宿 (Shinjuku),2011-06-09,09:00～09:59,0.0611,0.0576,0.0594,
新宿 (Shinjuku),2011-06-09,08:00～08:59,0.0622,0.0562,0.0596,
新宿 (Shinjuku),2011-06-09,07:00～07:59,0.0627,0.0567,0.0597,
新宿 (Shinjuku),2011-06-09,06:00～06:59,0.0614,0.0568,0.0591,
新宿 (Shinjuku),2011-06-09,05:00～05:59,0.0623,0.0564,0.0589,
新宿 (Shinjuku),2011-06-09,04:00～04:59,0.0615,0.0569,0.0589,
新宿 (Shinjuku),2011-06-09,03:00～03:59,0.0604,0.0558,0.0587,
新宿 (Shinjuku),2011-06-09,02:00～02:59,0.0614,0.0565,0.0587,
新宿 (Shinjuku),2011-06-09,01:00～01:59,0.0613,0.0572,0.0591,
新宿 (Shinjuku),2011-06-09,00:00～00:59,0.0613,0.0557,0.0591,
新宿 (Shinjuku),2011-06-08,23:00～23:59,0.0614,0.0566,0.0588,
新宿 (Shinjuku),2011-06-08,22:00～22:59,0.0619,0.0558,0.0587,
新宿 (Shinjuku),2011-06-08,21:00～21:59,0.0619,0.0541,0.0588,
新宿 (Shinjuku),2011-06-08,20:00～20:59,0.0618,0.0565,0.0591,
新宿 (Shinjuku),2011-06-08,19:00～19:59,0.0621,0.0561,0.0588,
新宿 (Shinjuku),2011-06-08,18:00～18:59,0.0613,0.0565,0.0589,
新宿 (Shinjuku),2011-06-08,17:00～17:59,0.0619,0.0563,0.0591,
新宿 (Shinjuku),2011-06-08,16:00～16:59,0.0617,0.0551,0.0589,
新宿 (Shinjuku),2011-06-08,15:00～15:59,0.0629,0.0565,0.0593,
新宿 (Shinjuku),2011-06-08,14:00～14:59,0.0616,0.0578,0.0594,
新宿 (Shinjuku),2011-06-08,13:00～13:59,0.0621,0.0573,0.0595,
新宿 (Shinjuku),2011-06-08,12:00～12:59,0.0623,0.0568,0.0597,
新宿 (Shinjuku),2011-06-08,11:00～11:59,0.0623,0.0574,0.0596,
新宿 (Shinjuku),2011-06-08,10:00～10:59,0.0632,0.0577,0.0599,
新宿 (Shinjuku),2011-06-08,09:00～09:59,0.0628,0.0571,0.0596,
新宿 (Shinjuku),2011-06-08,08:00～08:59,0.0645,0.0583,0.0605,
新宿 (Shinjuku),2011-06-08,07:00～07:59,0.0631,0.0581,0.0611,
新宿 (Shinjuku),2011-06-08,06:00～06:59,0.0645,0.0581,0.0615,
新宿 (Shinjuku),2011-06-08,05:00～05:59,0.0634,0.0589,0.0613,
新宿 (Shinjuku),2011-06-08,04:00～04:59,0.0633,0.0575,0.0611,
新宿 (Shinjuku),2011-06-08,03:00～03:59,0.0635,0.0585,0.0612,
新宿 (Shinjuku),2011-06-08,02:00～02:59,0.0628,0.0569,0.0594,
新宿 (Shinjuku),2011-06-08,01:00～01:59,0.0623,0.0564,0.0591,
新宿 (Shinjuku),2011-06-08,00:00～00:59,0.0614,0.0563,0.0592,
新宿 (Shinjuku),2011-06-07,23:00～23:59,0.0617,0.0558,0.0589,
新宿 (Shinjuku),2011-06-07,22:00～22:59,0.0610,0.0555,0.0591,
新宿 (Shinjuku),2011-06-07,21:00～21:59,0.0617,0.0559,0.0592,
新宿 (Shinjuku),2011-06-07,20:00～20:59,0.0622,0.0562,0.0589,
新宿 (Shinjuku),2011-06-07,19:00～19:59,0.0617,0.0560,0.0590,
新宿 (Shinjuku),2011-06-07,18:00～18:59,0.0615,0.0565,0.0591,
新宿 (Shinjuku),2011-06-07,17:00～17:59,0.0623,0.0566,0.0592,
新宿 (Shinjuku),2011-06-07,16:00～16:59,0.0617,0.0564,0.0591,
新宿 (Shinjuku),2011-06-07,15:00～15:59,0.0631,0.0563,0.0600,
新宿 (Shinjuku),2011-06-07,14:00～14:59,0.0620,0.0520,0.0573,
新宿 (Shinjuku),2011-06-07,13:00～13:59,0.0626,0.0572,0.0598,
新宿 (Shinjuku),2011-06-07,12:00～12:59,0.0624,0.0572,0.0599,
新宿 (Shinjuku),2011-06-07,11:00～11:59,0.0629,0.0563,0.0597,
新宿 (Shinjuku),2011-06-07,10:00～10:59,0.0637,0.0569,0.0601,
新宿 (Shinjuku),2011-06-07,09:00～09:59,0.0631,0.0579,0.0602,
新宿 (Shinjuku),2011-06-07,08:00～08:59,0.0626,0.0576,0.0604,
新宿 (Shinjuku),2011-06-07,07:00～07:59,0.0633,0.0571,0.0603,
新宿 (Shinjuku),2011-06-07,06:00～06:59,0.0642,0.0582,0.0601,
新宿 (Shinjuku),2011-06-07,05:00～05:59,0.0617,0.0569,0.0594,
新宿 (Shinjuku),2011-06-07,04:00～04:59,0.0624,0.0572,0.0594,
新宿 (Shinjuku),2011-06-07,03:00～03:59,0.0614,0.0564,0.0594,
新宿 (Shinjuku),2011-06-07,02:00～02:59,0.0620,0.0570,0.0594,
新宿 (Shinjuku),2011-06-07,01:00～01:59,0.0627,0.0566,0.0596,
新宿 (Shinjuku),2011-06-07,00:00～00:59,0.0624,0.0573,0.0595,
新宿 (Shinjuku),2011-06-06,23:00～23:59,0.0619,0.0569,0.0596,
新宿 (Shinjuku),2011-06-06,22:00～22:59,0.0623,0.0575,0.0595,
新宿 (Shinjuku),2011-06-06,21:00～21:59,0.0617,0.0565,0.0592,
新宿 (Shinjuku),2011-06-06,20:00～20:59,0.0618,0.0567,0.0593,
新宿 (Shinjuku),2011-06-06,19:00～19:59,0.0623,0.0565,0.0593,
新宿 (Shinjuku),2011-06-06,18:00～18:59,0.0627,0.0571,0.0594,
新宿 (Shinjuku),2011-06-06,17:00～17:59,0.0629,0.0560,0.0597,
新宿 (Shinjuku),2011-06-06,16:00～16:59,0.0640,0.0570,0.0600,
新宿 (Shinjuku),2011-06-06,15:00～15:59,0.0623,0.0569,0.0599,
新宿 (Shinjuku),2011-06-06,14:00～14:59,0.0624,0.0566,0.0602,
新宿 (Shinjuku),2011-06-06,13:00～13:59,0.0627,0.0573,0.0602,
新宿 (Shinjuku),2011-06-06,12:00～12:59,0.0647,0.0576,0.0604,
新宿 (Shinjuku),2011-06-06,11:00～11:59,0.0631,0.0584,0.0603,
新宿 (Shinjuku),2011-06-06,10:00～10:59,0.0638,0.0573,0.0607,
新宿 (Shinjuku),2011-06-06,09:00～09:59,0.0640,0.0580,0.0605,
新宿 (Shinjuku),2011-06-06,08:00～08:59,0.0628,0.0579,0.0603,
新宿 (Shinjuku),2011-06-06,07:00～07:59,0.0628,0.0573,0.0602,
新宿 (Shinjuku),2011-06-06,06:00～06:59,0.0636,0.0582,0.0603,
新宿 (Shinjuku),2011-06-06,05:00～05:59,0.0621,0.0575,0.0596,
新宿 (Shinjuku),2011-06-06,04:00～04:59,0.0620,0.0570,0.0596,
新宿 (Shinjuku),2011-06-06,03:00～03:59,0.0619,0.0569,0.0595,
新宿 (Shinjuku),2011-06-06,02:00～02:59,0.0616,0.0562,0.0595,
新宿 (Shinjuku),2011-06-06,01:00～01:59,0.0633,0.0578,0.0601,
新宿 (Shinjuku),2011-06-06,00:00～00:59,0.0672,0.0585,0.0623,
